Location: Unspecified
(42.9300°N, 71.1866°W)
Time: 16:23:31
(UTC-05:00)

Hubble Space Telescope - Visible Passes

Search period start: 19 November 2017 00:00
Search period end: 29 November 2017 00:00
Orbit: 537 x 541 km, 28.5° (Epoch: 18 November)

Date Brightness Start Highest point End Pass type
(mag) Time Alt. Az. Time Alt. Az. Time Alt. Az.
19 Nov 3.5 05:59:23 10° SSW 06:00:22 11° S 06:01:21 10° SSE visible
20 Nov 3.5 05:49:10 10° SSW 05:50:01 10° S 05:50:50 10° S visible
21 Nov 3.5 05:39:22 10° S 05:39:39 10° S 05:39:55 10° S visible
